Back to catalog

STARLINK-4352

AliveCommunicationsSSO
NORAD 53047·PAYLOAD·🇺🇸 United States

Launched Jul 11, 2022 from Vandenberg Space Force Base

Loading…

Next Passes (next 24 hours)

TLE

FreshSource: CelesTrak SupGP

Epoch: Sep 14, 2026, 21:41 UTC

1 53047C 22077E   26257.90395833  .00050240  00000+0  15593-2 0  2571
2 53047  97.2854  72.8213 0001300  95.9582 220.1584 15.33419355    13

Track STARLINK-4352 in real time with AllMySat

Download on the App Store